Location: *
(43.0409°N, 0.1694°E)
Time: 21:33:23
(UTC+00:00)

Cosmos 2344 - Pass Details

Date: 03 October 2023
Orbit: 1214 x 3029 km, 63.3° (Epoch: 04 December)

Event Time Altitude Azimuth Distance (km) Brightness Sun altitude
Rises 04:27:53 0° 200° (SSW) 4,533 6.2 -17.3°
Reaches altitude 10° 04:30:59 10° 196° (SSW) 3,405 5.6 -16.7°
Maximum altitude 04:38:35 59° 120° (ESE) 1,400 4.0 -15.4°
Drops below altitude 10° 04:45:44 10° 43° (NE) 3,207 6.5 -14.1°
Sets 04:48:33 0° 39° (NE) 4,250 7.1 -13.6°
